Temp
6 6 6 6 7 7 7 7 6 6 7 7 6 7 6 6 6 6 6 6 6 6 6 6 6 6 6 6 6 5 5 5 5 5 5 4 4 4 3 3 3 1 2 1 1 0 -0
6 7 7 7 7 7 7 7 6 6 7 6 6 6 6 6 6 6 6 6 6 6 6 6 6 6 6 6 5 5 5 5 5 5 5 4 4 3 3 3 2 2 2 1 0 0 -0
7 7 7 7 7 7 7 6 6 6 6 6 6 6 6 6 6 6 6 6 6 6 6 6 6 6 6 5 5 5 5 5 5 4 4 4 3 3 3 3 2 2 2 2 1 1 0
7 7 7 7 7 7 6 6 6 6 6 6 6 5 6 6 5 5 5 6 6 6 6 6 6 6 6 5 5 5 5 5 4 4 4 4 3 3 2 2 2 2 2 2 1 1 -1
6 6 6 6 6 6 6 6 6 6 5 5 5 5 6 6 6 6 6 5 6 6 6 6 6 5 5 5 5 5 5 4 4 4 4 4 3 2 1 2 2 2 1 1 1 -0 -1
6 6 6 6 6 6 6 5 5 5 5 5 5 5 5 6 6 5 5 5 5 5 5 5 5 5 5 5 5 5 5 4 4 4 4 3 2 2 2 2 -0 -0 0 1 1 -0 -1
6 6 6 6 6 5 5 5 5 5 5 5 5 5 5 5 5 5 5 5 5 6 5 5 5 5 4 4 5 4 4 4 4 4 3 2 2 2 1 1 1 0 0 1 1 0 -0
5 5 6 6 5 5 5 5 5 5 5 5 4 5 5 5 5 5 5 5 5 4 5 5 5 5 4 5 5 4 4 4 4 3 3 2 2 2 2 1 1 1 1 1 0 1 0
5 5 5 5 5 5 5 5 5 5 5 5 5 5 5 5 5 5 5 5 5 4 4 4 4 4 4 4 4 4 4 4 3 3 3 2 2 2 1 1 1 0 1 1 1 1 1
5 5 5 5 4 5 5 5 4 4 4 4 4 5 5 5 5 5 5 5 5 5 4 4 4 4 4 4 4 4 3 3 3 3 3 2 2 1 1 1 1 1 1 1 1 1 2
4 5 4 4 4 4 4 4 4 4 4 4 4 4 4 5 4 4 4 5 5 5 3 4 4 4 4 4 3 3 3 3 3 2 2 2 1 1 1 1 1 0 1 1 1 1 1
4 5 5 4 4 4 4 4 4 4 4 4 4 4 4 4 4 4 4 5 5 5 2 4 4 4 4 3 3 3 3 3 3 3 2 1 1 1 1 1 1 1 1 1 1 1 -0
5 5 5 5 5 4 4 4 4 5 4 4 4 4 4 4 4 4 4 4 5 4 4 4 3 3 3 3 3 3 2 2 2 2 1 1 1 1 1 1 0 0 1 1 -1 -1 -1
5 5 5 5 5 5 4 5 5 5 4 4 4 4 4 4 4 4 3 4 4 3 3 3 3 3 3 2 2 2 2 1 1 1 1 1 0 0 0 0 -0 -0 -0 -1 -1 -2 -1
5 5 5 5 5 5 5 5 5 5 5 5 4 4 3 4 3 3 3 3 3 3 2 2 3 2 2 2 2 2 1 1 1 1 0 -0 0 0 0 -0 -0 -0 -1 -1 -1 1 0
5 5 5 5 5 5 5 5 5 6 5 5 5 5 4 3 3 3 3 3 3 2 2 2 2 2 2 2 1 1 1 1 1 0 0 -1 -1 -0 0 -0 -0 -1 -1 -1 -0 -1 0
5 5 5 5 5 5 5 5 5 5 5 5 5 5 4 3 3 3 2 2 2 2 2 2 1 1 1 0 1 1 1 1 0 0 -0 -1 -2 -0 -1 -0 -0 -1 -1 -1 -1 -0 -2
4 4 4 5 5 5 5 5 5 5 5 4 5 4 3 3 2 2 2 2 1 2 2 2 2 1 1 0 0 -0 0 0 0 -0 -1 -1 -1 -2 -1 -1 -1 -1 -1 -1 -1 -1 -1
4 4 4 4 5 5 5 5 5 5 4 4 4 4 4 3 1 0 1 1 1 1 1 1 1 1 1 0 -0 -0 -0 0 -0 -1 -1 -2 -2 -2 -1 -1 -1 -1 -1 -1 -2 -2 -2
4 4 4 4 4 4 4 4 4 4 4 3 3 1 3 2 1 1 1 1 1 1 0 0 0 0 -0 0 -0 -0 -1 -1 -1 -1 -2 -2 -3 -2 -1 -1 -2 -2 -2 -2 -3 -3 -2
4 4 4 4 4 4 4 4 4 3 3 2 2 1 2 1 1 0 0 -0 -0 -0 -0 -0 -0 0 -1 -1 -1 -1 -1 -2 -1 -2 -2 -3 -3 -3 -3 -2 -2 -2 -2 -2 -3 -3 -3
4 3 3 3 3 3 3 3 3 3 3 2 2 1 -0 -1 -0 -1 -1 0 0 -0 -1 -1 -1 -1 -2 -1 -1 -2 -2 -2 -2 -3 -3 -3 -3 -3 -3 -2 -2 -2 -1 -1 -2 -2 -3
3 3 3 3 3 2 2 3 3 3 3 2 2 1 0 -1 -1 -1 0 0 -0 -1 -1 -1 -1 -2 -1 -2 -2 -2 -2 -2 -3 -3 -4 -5 -5 -5 -4 -3 -4 -4 0 -1 -2 -2 -3
3 3 3 3 3 2 2 2 3 3 2 2 2 1 1 -0 -1 0 -1 -1 -1 -1 -1 -1 -2 -2 -2 -3 -3 -3 -3 -3 -3 -3 -3 -4 -6 -6 -5 -4 -5 -2 -2 -2 -2 -3 -3
2 2 2 2 2 2 2 2 2 2 2 2 2 1 1 1 -0 -0 -1 -1 -1 -1 -1 -2 -2 -1 -2 -3 -5 -4 -4 -4 -2 -3 -3 -4 -5 -6 -6 -5 -3 -3 -2 -2 -2 -2 -3
2 2 2 2 2 2 2 2 2 2 2 2 2 1 1 -0 -0 -0 -1 -1 -1 -1 -1 -1 -2 -2 -2 -2 -5 -5 -4 -4 -4 -3 -3 -4 -5 -6 -6 -6 -4 -3 -3 -3 -3 -4 -4
2 2 2 2 2 2 2 2 2 2 1 2 2 1 0 0 1 -0 -1 -1 -2 -2 -2 -2 -2 -2 -3 -4 -5 -5 -5 -5 -4 -4 -4 -5 -6 -6 -6 -6 -5 -4 -4 -4 -6 -5 -5
2 2 2 2 2 2 2 2 1 1 1 1 1 1 0 -0 -0 -0 -1 -1 -2 -2 -2 -2 -2 -3 -3 -4 -5 -5 -5 -5 -5 -5 -5 -5 -5 -6 -7 -7 -6 -5 -5 -6 -6 -6 -7
3 2 2 2 2 2 1 1 1 1 1 1 1 0 -1 -1 -1 -1 -1 -1 -2 -2 -2 -2 -2 -3 -4 -4 -4 -5 -5 -5 -5 -6 -5 -6 -5 -6 -6 -6 -5 -6 -6 -7 -7 -8 -9
Height
3193 3192 3192 3191 3191 3190 3189 3188 3187 3186 3184 3182 3180 3178 3176 3173 3171 3168 3166 3163 3161 3158 3156 3153 3151 3149 3148 3146 3145 3143 3142 3139 3136 3134 3131 3127 3125 3123 3121 3119 3117 3116 3114 3111 3110 3109 3107
3194 3193 3193 3193 3192 3191 3190 3189 3188 3186 3184 3183 3181 3178 3175 3172 3169 3166 3164 3161 3158 3156 3154 3152 3150 3148 3146 3145 3143 3142 3141 3138 3136 3133 3130 3127 3125 3123 3120 3118 3116 3115 3113 3110 3110 3108 3106
3194 3194 3194 3193 3192 3191 3191 3189 3188 3186 3185 3183 3181 3178 3174 3171 3168 3165 3162 3159 3156 3154 3151 3149 3148 3146 3145 3145 3142 3141 3140 3137 3135 3132 3130 3127 3125 3123 3120 3117 3115 3114 3112 3110 3110 3107 3104
3195 3195 3194 3193 3193 3192 3190 3189 3188 3186 3185 3183 3181 3177 3174 3171 3167 3163 3160 3157 3155 3152 3149 3147 3146 3144 3143 3142 3142 3141 3139 3137 3134 3131 3129 3127 3125 3122 3119 3116 3112 3112 3113 3112 3109 3107 3104
3195 3195 3194 3194 3193 3192 3191 3190 3188 3187 3185 3183 3181 3178 3174 3170 3166 3162 3158 3155 3152 3149 3147 3146 3145 3143 3143 3142 3141 3140 3138 3136 3133 3131 3129 3126 3125 3122 3120 3117 3115 3113 3112 3112 3110 3107 3105
3195 3195 3195 3194 3193 3192 3191 3190 3188 3187 3185 3183 3180 3177 3174 3170 3166 3161 3157 3155 3152 3149 3147 3144 3143 3145 3142 3142 3141 3139 3137 3135 3133 3130 3129 3126 3124 3122 3120 3115 3114 3111 3111 3111 3109 3109 3105
3195 3195 3194 3194 3193 3192 3191 3190 3188 3187 3185 3183 3180 3177 3174 3170 3166 3162 3158 3154 3153 3150 3145 3143 3141 3140 3141 3141 3141 3139 3136 3134 3132 3130 3126 3124 3123 3121 3118 3116 3113 3112 3112 3111 3109 3107 3106
3194 3194 3194 3194 3193 3192 3191 3190 3188 3186 3184 3182 3179 3176 3173 3170 3166 3162 3158 3153 3149 3148 3144 3142 3140 3140 3141 3141 3140 3139 3136 3134 3131 3129 3127 3126 3123 3121 3118 3116 3113 3110 3109 3109 3108 3107 3107
3194 3194 3193 3193 3192 3191 3190 3189 3187 3186 3184 3181 3178 3175 3171 3168 3165 3163 3157 3152 3148 3144 3143 3143 3142 3143 3143 3142 3139 3138 3136 3133 3131 3129 3127 3125 3124 3121 3117 3115 3111 3109 3107 3107 3107 3106 3104
3193 3192 3192 3191 3190 3189 3188 3187 3186 3184 3182 3180 3176 3173 3170 3167 3166 3160 3156 3152 3147 3142 3143 3146 3144 3144 3144 3142 3140 3138 3136 3135 3130 3129 3127 3125 3122 3120 3117 3114 3111 3106 3107 3106 3106 3105 3103
3190 3190 3190 3189 3188 3187 3186 3185 3183 3181 3179 3177 3174 3171 3168 3164 3162 3160 3157 3151 3146 3143 3144 3147 3145 3143 3143 3143 3140 3138 3136 3133 3131 3128 3128 3125 3121 3118 3115 3112 3110 3108 3105 3106 3106 3104 3104
3186 3186 3186 3186 3185 3184 3183 3182 3180 3178 3176 3174 3171 3169 3166 3164 3161 3158 3154 3151 3146 3147 3147 3147 3144 3142 3141 3138 3137 3136 3134 3132 3128 3127 3125 3122 3120 3118 3115 3112 3110 3106 3104 3104 3103 3102 3102
3182 3183 3182 3182 3182 3181 3179 3178 3176 3175 3174 3171 3169 3167 3164 3162 3159 3156 3153 3150 3148 3146 3148 3146 3144 3141 3138 3136 3135 3134 3132 3131 3130 3128 3125 3124 3121 3119 3116 3113 3110 3108 3105 3103 3103 3100 3100
3177 3178 3178 3178 3177 3176 3176 3175 3173 3171 3170 3167 3166 3164 3163 3159 3156 3154 3153 3152 3149 3149 3147 3146 3143 3141 3139 3137 3135 3132 3131 3131 3129 3129 3128 3125 3122 3119 3118 3116 3113 3110 3109 3110 3108 3104 3099
3173 3173 3174 3174 3173 3173 3172 3170 3170 3168 3166 3164 3163 3161 3161 3157 3154 3152 3152 3150 3151 3149 3147 3144 3141 3137 3137 3135 3134 3131 3129 3128 3127 3127 3126 3124 3121 3118 3117 3115 3115 3112 3111 3110 3109 3102 3100
3168 3168 3169 3169 3169 3169 3168 3167 3166 3164 3163 3161 3160 3158 3158 3155 3152 3151 3151 3149 3148 3147 3145 3143 3142 3141 3139 3137 3135 3133 3130 3127 3126 3126 3124 3124 3120 3117 3115 3113 3113 3113 3113 3111 3109 3107 3102
3165 3164 3165 3165 3165 3165 3164 3163 3162 3161 3159 3157 3155 3154 3154 3152 3150 3149 3148 3148 3146 3145 3143 3141 3139 3137 3136 3135 3134 3132 3130 3128 3124 3123 3122 3119 3118 3118 3115 3113 3111 3112 3112 3112 3110 3109 3107
3162 3162 3161 3161 3161 3161 3160 3159 3158 3157 3155 3152 3151 3150 3148 3148 3148 3145 3145 3144 3145 3142 3141 3138 3137 3135 3132 3130 3129 3130 3128 3125 3123 3122 3120 3117 3114 3111 3112 3111 3110 3110 3110 3111 3111 3109 3108
3158 3158 3158 3158 3157 3157 3156 3155 3154 3152 3150 3148 3145 3145 3145 3144 3144 3142 3141 3142 3141 3141 3139 3137 3135 3133 3131 3129 3129 3125 3124 3123 3122 3121 3119 3118 3115 3110 3108 3111 3109 3109 3109 3108 3109 3108 3103
3154 3154 3153 3153 3152 3152 3150 3149 3148 3147 3145 3143 3141 3138 3138 3139 3137 3137 3138 3138 3137 3137 3135 3134 3133 3131 3128 3126 3126 3122 3120 3119 3119 3119 3118 3115 3111 3108 3106 3104 3106 3105 3105 3105 3104 3104 3100
3148 3148 3148 3148 3147 3146 3145 3144 3142 3141 3140 3139 3137 3134 3134 3134 3134 3133 3133 3132 3132 3131 3130 3129 3126 3127 3125 3122 3120 3120 3117 3115 3113 3113 3113 3112 3107 3105 3100 3099 3099 3098 3097 3098 3096 3095 3096
3142 3142 3142 3142 3142 3141 3140 3138 3137 3136 3134 3133 3132 3132 3128 3129 3130 3130 3128 3127 3127 3127 3125 3124 3123 3122 3121 3118 3117 3114 3114 3112 3110 3107 3106 3106 3102 3100 3095 3093 3092 3088 3086 3085 3085 3086 3085
3136 3136 3136 3136 3135 3135 3134 3133 3132 3131 3129 3127 3128 3126 3125 3124 3124 3124 3122 3122 3121 3119 3118 3118 3117 3115 3114 3114 3113 3111 3110 3107 3105 3101 3101 3100 3098 3097 3090 3090 3086 3080 3075 3074 3076 3077 3078
3128 3129 3130 3130 3130 3129 3129 3128 3127 3126 3124 3123 3123 3122 3119 3116 3117 3119 3118 3118 3117 3114 3113 3113 3112 3108 3110 3107 3106 3104 3101 3099 3098 3095 3093 3091 3093 3094 3089 3088 3083 3073 3071 3070 3070 3071 3073
3120 3120 3122 3123 3124 3123 3123 3123 3123 3121 3119 3117 3117 3116 3114 3108 3111 3112 3113 3113 3112 3109 3107 3104 3105 3103 3102 3100 3098 3094 3095 3091 3086 3084 3084 3085 3085 3086 3086 3082 3075 3070 3068 3068 3067 3068 3068
3112 3113 3113 3115 3116 3116 3116 3116 3117 3116 3113 3111 3112 3112 3108 3105 3103 3106 3105 3106 3106 3104 3102 3101 3100 3096 3095 3093 3093 3091 3090 3087 3083 3080 3079 3080 3080 3082 3081 3079 3072 3065 3064 3064 3063 3062 3063
3102 3104 3105 3106 3107 3108 3109 3109 3110 3110 3108 3105 3107 3107 3102 3098 3097 3099 3097 3098 3098 3097 3093 3092 3093 3092 3089 3086 3086 3086 3084 3084 3081 3076 3073 3075 3074 3074 3075 3073 3066 3062 3061 3061 3063 3062 3057
3090 3092 3094 3096 3098 3099 3100 3101 3101 3102 3101 3099 3100 3101 3097 3092 3089 3090 3091 3091 3089 3090 3088 3086 3086 3081 3080 3080 3078 3078 3076 3075 3073 3072 3070 3071 3071 3069 3070 3069 3063 3056 3056 3060 3056 3053 3053
3078 3080 3082 3085 3087 3089 3090 3092 3093 3093 3093 3092 3090 3094 3091 3086 3083 3080 3080 3082 3083 3083 3082 3079 3079 3076 3075 3072 3072 3072 3071 3069 3068 3065 3065 3065 3064 3064 3065 3059 3055 3052 3052 3051 3050 3049 3047
Wind_Speed
9 9 8 8 8 8 8 9 10 11 12 14 15 17 18 19 19 18 18 17 17 16 16 16 14 14 13 14 11 15 15 16 17 17 20 20 17 18 20 21 15 9 16 11 14 17 19
6 7 7 7 7 8 9 10 11 12 13 15 16 19 19 20 20 19 19 18 17 16 16 16 16 13 13 12 10 13 15 14 16 17 18 18 16 18 21 20 13 21 17 15 7 14 16
4 5 6 7 7 8 9 10 11 12 13 15 18 20 20 22 22 20 19 18 17 15 17 16 15 12 15 8 7 12 13 14 16 16 16 15 14 18 20 20 15 16 15 12 9 21 17
5 5 6 6 7 8 9 10 11 12 12 16 19 22 23 25 24 22 20 18 18 17 17 16 12 15 8 7 8 12 12 15 14 15 14 17 13 16 22 22 21 14 8 13 12 22 17
5 5 6 6 7 7 9 10 11 12 14 15 19 21 23 27 27 25 21 19 18 14 13 14 15 7 8 6 8 12 13 15 14 13 10 16 13 16 18 18 9 13 10 12 9 13 9
5 6 6 6 6 7 7 8 9 11 14 15 19 21 21 26 27 26 21 19 18 12 16 15 9 10 7 8 8 9 15 15 13 11 12 14 13 12 18 19 10 14 13 10 12 10 10
4 5 6 6 6 7 8 9 10 12 14 17 20 20 20 23 27 28 24 23 20 16 20 14 10 6 3 4 10 9 15 15 14 11 14 10 10 18 19 16 17 15 10 9 8 6 7
5 6 7 8 8 9 10 11 12 15 17 18 20 22 20 20 24 28 27 25 22 19 20 8 7 5 3 6 13 11 16 15 15 7 12 9 11 17 17 14 18 9 6 5 5 4 2
7 7 8 9 10 11 12 13 15 17 19 19 21 23 21 20 21 25 28 29 23 21 11 6 6 3 5 10 14 16 14 16 15 6 10 6 13 14 14 12 20 8 8 4 3 7 9
11 10 11 12 13 14 15 16 18 20 21 21 23 25 21 20 22 27 25 31 27 19 2 6 3 4 6 12 8 17 12 17 13 7 7 5 15 12 14 12 18 6 10 7 4 7 7
17 16 15 16 16 16 17 19 20 21 23 23 24 23 20 20 22 24 26 30 26 8 3 5 5 6 8 15 17 10 15 15 12 7 6 9 15 10 13 17 13 15 7 5 8 7 12
21 23 20 17 20 20 19 22 24 24 23 24 23 25 18 22 17 24 23 26 16 4 3 7 6 7 15 17 12 12 16 10 8 7 9 14 14 9 12 12 8 17 8 9 8 9 3
25 25 24 24 22 22 21 23 24 23 22 23 23 20 22 22 24 24 21 22 5 5 12 6 12 17 18 11 8 11 14 9 7 8 10 11 11 12 9 14 7 15 3 5 2 2 3
24 24 25 25 23 22 24 23 22 22 23 23 21 20 21 24 22 20 19 17 4 9 13 13 20 17 9 8 10 16 8 7 9 8 14 11 7 12 14 15 11 11 8 4 4 3 5
22 22 23 23 22 22 22 23 23 22 23 25 17 18 22 20 19 16 16 6 5 11 13 18 16 7 5 10 11 11 8 9 5 4 9 7 6 15 12 15 7 8 7 5 5 7 5
18 18 18 19 19 20 22 24 23 22 23 25 23 23 23 21 16 14 15 7 9 12 14 16 10 8 7 13 13 6 7 7 6 4 11 8 12 6 10 15 4 5 8 3 2 4 4
17 16 16 16 16 18 20 22 22 22 25 27 26 27 26 21 21 20 13 11 16 13 16 12 12 14 14 14 12 8 6 11 11 6 13 14 4 8 13 7 7 5 3 4 6 5 2
14 14 14 15 16 17 18 20 22 24 27 30 30 31 26 26 26 17 13 12 18 15 15 14 14 14 13 13 15 9 9 12 11 13 14 9 7 12 16 16 17 12 10 5 4 3 6
18 18 19 21 22 23 24 25 26 28 30 32 33 32 30 23 23 19 19 15 17 16 15 15 15 17 17 17 9 7 13 17 13 13 11 15 4 7 2 6 4 8 11 10 10 13 14
24 26 27 28 27 28 28 28 29 30 31 31 30 27 30 28 15 9 11 19 18 15 20 18 19 20 19 18 15 12 16 15 13 16 18 18 15 16 15 14 19 20 16 14 12 10 12
24 25 25 25 26 28 28 27 26 26 26 28 28 29 28 21 27 25 21 22 22 27 27 17 21 19 19 20 17 21 17 16 18 17 19 16 22 21 21 22 23 26 28 27 27 28 21
27 26 25 25 26 28 29 28 25 25 24 26 27 27 31 29 28 31 31 30 25 23 27 21 21 16 19 23 20 22 22 21 21 20 18 21 19 18 27 26 20 22 23 26 30 31 32
31 29 27 25 25 26 26 25 24 24 25 26 25 26 26 30 33 31 28 24 27 27 26 21 24 23 22 22 21 22 24 25 26 24 24 23 17 14 13 13 16 22 23 25 28 28 25
32 31 29 27 26 25 25 24 23 24 25 25 23 23 26 33 31 26 24 26 28 31 29 28 28 31 25 23 25 26 29 31 33 32 31 33 21 16 15 16 5 12 10 10 13 23 21
33 31 31 29 27 25 24 25 25 25 26 25 23 23 26 30 29 26 25 27 28 28 31 28 31 27 29 27 28 26 24 21 20 23 28 29 25 16 7 11 16 27 25 18 18 18 19
35 32 30 31 32 29 27 27 27 26 27 27 24 24 28 30 33 27 28 27 30 33 32 38 29 29 30 32 24 10 8 11 7 7 9 13 17 23 10 6 5 5 5 7 11 19 21
41 39 35 33 34 32 30 29 28 27 27 29 26 25 30 33 34 29 31 33 32 33 37 33 32 27 27 25 22 19 16 19 10 9 9 17 20 29 26 11 11 16 18 17 10 12 9
45 46 42 37 35 34 34 32 29 28 28 30 29 27 29 34 36 33 31 32 28 28 29 34 31 30 26 21 18 19 16 16 17 19 17 15 11 13 21 10 13 18 16 15 16 15 19
44 42 41 40 37 35 35 34 32 31 30 30 34 28 28 33 39 38 36 35 31 33 35 37 36 35 23 18 14 10 15 15 16 11 17 17 20 10 15 11 17 17 18 19 23 25 25
Wind_Direction
60 57 54 49 42 33 25 18 13 7 1 357 354 350 347 344 340 337 334 334 331 330 329 330 329 327 326 330 343 346 348 350 349 352 356 359 356 359 359 357 354 358 343 349 -0 344 348
50 47 41 36 28 19 13 8 3 2 -0 0 1 357 354 352 347 343 337 331 329 326 327 323 322 322 326 326 332 344 346 348 346 353 353 355 354 355 360 358 6 2 15 3 344 343 345
27 20 13 11 5 1 3 3 3 5 9 10 3 359 357 353 350 347 344 340 334 327 331 325 320 322 322 321 327 339 346 347 349 352 353 359 352 357 0 8 354 359 360 36 358 341 359
339 347 351 354 357 359 4 7 11 14 12 8 12 9 4 357 350 345 343 336 331 329 326 326 321 318 318 324 331 339 348 349 351 350 356 359 350 1 4 7 358 354 16 9 345 342 15
333 341 349 351 355 7 9 10 8 4 358 355 356 357 2 360 357 353 344 338 339 342 340 334 325 321 329 331 332 343 352 348 354 349 358 356 356 10 4 348 359 352 348 356 353 24 10
336 343 347 351 354 359 5 1 1 357 358 353 353 356 359 0 2 2 1 359 350 358 347 338 327 318 320 326 344 351 351 348 353 348 350 356 5 6 350 360 354 339 344 356 5 50 16
348 343 338 339 343 343 347 349 346 343 344 346 351 353 353 359 6 5 357 351 342 349 348 343 331 309 315 0 352 350 352 348 350 339 360 8 359 351 354 357 357 336 326 340 7 73 5
320 327 329 328 327 333 334 333 333 334 334 339 341 344 342 348 357 1 359 352 352 342 346 6 29 69 87 350 343 348 344 346 347 354 350 354 343 345 348 354 340 328 331 356 295 340 51
298 307 308 310 315 317 318 319 324 332 333 332 338 341 337 340 346 350 358 357 351 341 347 39 48 47 355 343 341 344 342 341 340 329 338 328 335 338 2 328 348 339 315 329 273 288 311
285 291 298 300 302 304 307 311 315 321 326 328 330 331 332 333 337 348 353 358 350 342 75 21 13 335 333 342 338 334 340 340 334 330 331 312 330 338 359 342 348 344 305 298 311 320 326
278 281 290 294 298 300 305 310 311 314 322 323 325 325 331 337 337 343 347 352 350 11 94 354 357 333 328 336 329 333 338 341 340 319 332 308 334 336 349 343 333 333 313 310 302 295 311
275 288 288 286 300 293 297 308 309 310 316 321 325 328 327 332 334 335 340 347 359 26 15 331 329 325 323 327 330 329 336 340 340 328 320 325 326 327 341 341 337 344 307 296 290 299 283
279 281 286 288 292 285 295 300 302 307 317 314 324 328 329 325 326 332 342 349 1 48 331 313 319 322 320 328 331 338 337 348 348 344 329 332 312 327 336 356 356 336 349 310 298 198 220
276 280 283 289 290 280 287 303 299 308 315 315 319 334 327 328 330 330 340 349 17 330 330 326 328 332 347 341 334 333 344 325 324 350 343 335 326 326 330 351 348 18 27 352 301 356 301
275 281 285 288 289 290 296 297 299 305 313 318 315 326 333 330 332 335 339 0 326 325 321 324 333 344 317 336 324 330 312 294 297 338 16 326 289 307 310 336 337 354 341 326 289 297 282
273 278 281 286 290 293 295 296 299 302 311 314 320 320 332 326 329 335 334 329 321 326 327 329 332 314 303 301 311 308 293 287 294 302 344 313 304 297 307 322 309 342 353 356 312 323 309
271 272 276 282 290 297 301 301 301 301 303 306 309 313 323 327 322 323 315 310 322 326 329 324 310 299 302 306 307 299 266 288 288 285 327 329 273 297 309 300 297 294 333 329 308 263 290
272 276 280 286 292 296 302 304 304 301 303 303 304 304 307 322 320 322 313 296 316 310 323 318 317 313 306 299 299 270 253 267 289 292 316 309 281 282 290 281 287 256 245 292 290 346 281
269 274 281 284 287 289 291 294 296 297 298 301 301 301 300 311 321 309 306 294 308 305 313 315 312 310 310 302 291 264 268 292 284 283 304 311 292 320 246 274 312 277 277 265 262 271 264
274 276 280 283 284 286 286 287 291 295 298 298 297 294 296 306 314 327 292 295 301 292 300 305 310 309 302 298 285 273 281 286 283 280 295 302 277 252 243 260 284 286 276 276 268 250 263
279 280 280 282 285 290 288 288 291 293 297 297 295 290 293 286 290 293 301 288 291 289 291 292 301 308 300 290 286 288 286 278 282 282 289 295 279 277 270 273 281 281 276 267 258 261 253
278 279 282 282 285 288 289 290 291 293 291 289 291 288 290 295 291 288 287 291 295 297 285 304 298 298 293 286 287 276 276 281 283 281 285 294 281 282 281 289 286 275 270 266 263 258 254
274 277 277 279 283 285 288 291 292 293 289 289 290 288 284 279 282 290 294 294 300 287 284 291 291 279 288 290 281 277 274 272 270 272 282 276 273 279 278 289 296 288 277 261 257 255 256
271 272 274 277 279 278 282 288 292 291 289 289 291 288 283 277 281 294 289 292 293 291 278 292 307 279 292 287 280 276 274 274 269 267 269 274 260 254 275 289 252 272 278 272 247 242 253
273 272 268 269 274 277 279 282 285 287 285 283 285 283 282 280 292 288 292 293 302 300 294 285 309 287 303 284 274 282 288 285 285 270 258 261 251 241 244 226 266 281 273 268 263 260 267
266 269 270 269 266 270 274 276 280 284 284 282 281 280 280 278 286 293 287 285 296 298 293 295 306 304 297 293 273 260 251 271 272 264 254 238 233 229 233 237 258 273 257 264 273 267 269
265 264 267 271 266 265 269 272 276 280 283 283 282 278 277 278 284 287 285 289 291 291 295 297 298 299 296 279 255 250 262 253 251 242 250 231 229 219 229 248 260 268 268 264 254 270 256
268 261 262 264 266 262 264 267 270 274 278 279 281 275 275 278 282 284 284 289 290 289 297 292 293 293 289 258 247 257 247 252 251 254 261 249 236 226 230 244 261 261 259 247 266 272 285
267 265 261 257 259 261 260 262 265 267 272 275 274 274 275 278 278 286 286 286 285 286 290 288 284 289 278 263 250 249 249 249 256 256 257 252 242 231 222 231 255 269 267 274 278 282 287